Regional Weather Roundup
Issued by NWS Northern Indiana

Home | Current Version | Previous Version | Graphics & Text | Print | Product List | Glossary On
Versions: 1 2 3 4 5 6 7 8 9 10 11 12 13 14 15 16 17 18 19 20 21 22 23 24 25 26 27 28 29 30 31 32 33 34 35 36 37 38 39 40 41 42 43 44 45 46 47 48 49 50
000
ASUS43 KIWX 270600
RWRIWX

KIWX WEATHER ROUNDUP
NATIONAL WEATHER SERVICE NORTHERN INDIANA
200 AM EDT TUE JUN 27 2017

NOTE: "FAIR" INDICATES FEW OR NO CLOUDS BELOW 12,000 FEET WITH NO
SIGNIFICANT WEATHER AND/OR OBSTRUCTIONS TO VISIBILITY.

* THESE STATIONS ARE NOT UNDER NWS QUALITY CONTROL. THEY ALSO MAY NOT
  REPORT WEATHER SUCH AS PRECIPITATION OR FOG.

INZ001>027-270700-
NORTHERN INDIANA

CITY           SKY/WX    TMP DP  RH WIND       PRES   REMARKS
MICHIGAN CITY* PTCLDY    59  50  72 N6        30.09S
KNOX*          CLEAR     52  43  71 W5        30.09R
SOUTH BEND     MOCLDY    52  49  89 W7        30.08S
6HR MIN TEMP:  50; 6HR MAX TEMP:  63;

GOSHEN         CLEAR     50  44  80 W3        30.07S
6HR MIN TEMP:  50; 6HR MAX TEMP:  67;

MONTICELLO*    CLEAR     53  51  92 CALM      30.10R
6HR MIN TEMP:  53; 6HR MAX TEMP:  61;

FORT WAYNE     PTCLDY    56  47  71 NW7       30.07R
6HR MIN TEMP:  56; 6HR MAX TEMP:  59;

PERU/GRISSOM   CLEAR     53  53  99 W3        30.07S
6HR MIN TEMP:  53; 6HR MAX TEMP:  59; 6HR PCP:  0.01;


$$
INZ028>050-270700-
CENTRAL INDIANA

CITY           SKY/WX    TMP DP  RH WIND       PRES   REMARKS
LAFAYETTE      CLEAR     51  51 100 NW3       30.11R FOG
6HR MIN TEMP:  51; 6HR MAX TEMP:  58;

KOKOMO*        CLEAR     55  50  83 NW5       30.10R
6HR MIN TEMP:  55; 6HR MAX TEMP:  59; 6HR PCP: TRACE;

MUNCIE*        CLEAR     55  51  86 W6        30.09R
6HR MIN TEMP:  55; 6HR MAX TEMP:  63; 6HR PCP:  0.02;

INDIANAPOLIS   CLEAR     54  49  83 W7        30.11R
6HR MIN TEMP:  54; 6HR MAX TEMP:  69; 6HR PCP: TRACE;


$$
MIZ043>046-050>051-056>058-064>065-071>073-077>080-270700-
SOUTHWEST LOWER MICHIGAN

CITY           SKY/WX    TMP DP  RH WIND       PRES   REMARKS
BATTLE CREEK   MOCLDY    53  48  83 W8        30.04F
6HR MIN TEMP:  50; 6HR MAX TEMP:  61;

BENTON HARBOR  PTCLDY    59  49  69 NW7       30.07R
6HR MIN TEMP:  59; 6HR MAX TEMP:  62;

COLDWATER*     CLEAR     50  45  85 W3        30.04F
6HR MIN TEMP:  50; 6HR MAX TEMP:  65;

HILLSDALE*     CLEAR     48  43  81 W7        30.03S
HOLLAND        PTCLDY    58  49  72 N6        30.06R
6HR MIN TEMP:  58; 6HR MAX TEMP:  60;

GRAND RAPIDS   PTCLDY    54  50  86 NW10      30.04R
6HR MIN TEMP:  52; 6HR MAX TEMP:  59;

KALAMAZOO      PTCLDY    52  45  77 W5        30.05S
6HR MIN TEMP:  51; 6HR MAX TEMP:  61;

STURGIS*       CLEAR     50  46  85 CALM      30.05S
6HR MIN TEMP:  50; 6HR MAX TEMP:  64;

THREE RIVERS*  FAIR      51  46  84 CALM      30.06S
6HR MIN TEMP:  49; 6HR MAX TEMP:  62;


$$
OHZ001>008-015>018-024>025-270700-
NORTHWEST OHIO

CITY           SKY/WX    TMP DP  RH WIND       PRES   REMARKS
DEFIANCE       CLEAR     54  45  71 W3        30.05S
6HR MIN TEMP:  54; 6HR MAX TEMP:  59;

FINDLAY        CLEAR     55  50  83 W9        30.03S
6HR MIN TEMP:  55; 6HR MAX TEMP:  58; 6HR PCP:  0.07;

TOLEDO EXPRESS CLEAR     52  49  89 W7        30.02S
6HR MIN TEMP:  52; 6HR MAX TEMP:  61; 6HR PCP:  0.08;

TOLEDO METCALF CLEAR     55  49  80 W10       30.03R
6HR MIN TEMP:  55; 6HR MAX TEMP:  62; 6HR PCP:  0.10;

LIMA           CLEAR     56  51  84 W8        30.05S
6HR MIN TEMP:  55; 6HR MAX TEMP:  60; 6HR PCP: TRACE;


$$
AND FOR LAKE MICHIGAN COASTAL AND OPEN LAKE BUOY OBSERVATIONS

STATION/POSITION TEMP    WIND        PRES    VSBY  WAVE
                 AIR SEA DIR/SP/G                  HT/PER
                 (F)     (DEG/KT/KT) (MB)    (MI)  (FT/S)
CALUMET HARBOR    60     280/  2/  4 1018.6S
MICHIGAN CITY     61     330/ 17/ 19   N/A
BURNS HARBOR      63     320/ 14/ 18 1019.3R
SOUTH LAKE BUOY   58 61  350/ 16/ 19 1018.1          3/ 5
4 MI NW BRIDGMAN  61 68  360/ 16/ 21 1018.7R         4/ 5
MICHIGAN CITY     62 65  340/ 14/ 17   N/A           3/ 5

$$
&&



USA.gov is the U.S. government's official web portal to all federal, state and local government web resources and services.